[[{"header":{"parameterUnit":"m.s-1","parameterCategory":1,"la1":30.2991,"la2":30.254,"lo1":-89.0895,"lo2":-89.0444,"dy":0.0017,"dx":0.0017,"nx":28,"ny":28,"refTime":"2025-06-22T09:00:00:Z","depth":0,"parameterNumber":2,"parameterNumberName":"U-component_of_WINDS"},"data":[0,0,0,0,0,0,0,0,0,0,0,0,0,0,0,0,0,0,0,0,0,0,0,0,0,0,0,0,0,0,0,0,0,0,0,0,0,0,0,0,0,0,0,0,0,0,0,0,0,0,0,0,0,0,0,0,0,0,-1.2482,-1.2481,0,-1.2445,-1.2444,-1.2444,-1.2393,-1.2392,-1.2391,-1.2391,-1.2353,-1.2353,-1.2353,0,0,0,0,0,0,0,0,0,0,0,0,0,-1.2511,-1.2511,-1.2482,-1.2481,-1.2481,-1.2445,-1.2444,-1.2444,-1.2393,-1.2392,-1.2391,-1.239,-1.2353,-1.2353,-1.2353,0,0,0,0,0,0,0,0,0,0,0,0,0,-1.2488,-1.251,-1.2482,-1.2451,-1.2448,-1.2445,-1.2444,-1.2443,-1.2394,-1.2392,-1.2391,-1.239,-1.2353,-1.2353,-1.2353,-1.2376,0,0,-1.2352,-1.2352,0,0,0,0,0,0,0,0,-1.249,-1.2487,-1.2456,-1.2454,-1.245,-1.2422,-1.244,-1.2421,-1.2394,-1.2414,-1.2391,-1.2389,-1.2377,-1.2375,-1.2371,-1.2374,-1.2373,-1.2352,-1.2351,-1.2351,-1.2351,0,0,0,0,0,0,0,-1.2491,-1.2489,-1.2467,-1.2456,-1.2452,-1.244,-1.2435,-1.2437,-1.2403,-1.2412,-1.2409,-1.2405,-1.2375,-1.2371,-1.2369,-1.2372,-1.2352,-1.2351,-1.2351,-1.2351,-1.2394,-1.2395,0,0,0,0,0,0,-1.2497,-1.249,-1.2468,-1.2466,-1.2467,-1.2441,-1.2435,-1.2432,-1.2403,-1.2398,-1.2406,-1.2403,-1.2372,-1.237,-1.2368,-1.2394,-1.2351,-1.2351,-1.2351,-1.2393,-1.2394,-1.2396,0,0,0,0,0,0,-1.2498,-1.2496,-1.247,-1.2477,-1.2473,-1.2441,-1.2438,-1.2432,-1.2428,-1.2398,-1.2392,-1.2408,-1.2371,-1.2368,-1.2374,-1.2392,-1.2351,-1.2351,-1.2391,-1.2393,-1.2395,-1.2445,0,0,0,0,0,0,-1.2499,-1.2496,-1.2505,-1.2478,-1.2473,-1.2477,-1.2439,-1.2433,-1.2428,-1.2423,-1.2398,-1.2393,-1.237,-1.2375,-1.2374,-1.239,-1.235,-1.2389,-1.2392,-1.2394,-1.2442,-1.2449,-1.2455,0,0,0,0,0,-1.25,-1.252,-1.2505,-1.2503,-1.2482,-1.2478,-1.2475,-1.2448,-1.2429,-1.2437,-1.2419,-1.2394,-1.239,-1.2376,-1.2375,-1.2391,-1.2388,-1.2391,-1.2394,-1.2439,-1.2448,-1.2455,0,0,0,0,0,0,-1.255,-1.2516,-1.2499,-1.2511,-1.2498,-1.2469,-1.2479,-1.2457,-1.2449,-1.2445,-1.2412,-1.2407,-1.2417,-1.2405,-1.239,-1.2413,-1.2385,-1.2388,-1.242,-1.2428,-1.2434,-1.2437,-1.235,0,0,0,0,0,-1.2563,-1.2562,-1.2532,-1.2545,-1.254,-1.2511,-1.2508,-1.2488,-1.2473,-1.2467,-1.2448,-1.2435,-1.2431,-1.2429,-1.2423,-1.244,-1.2434,-1.2451,-1.2457,-1.2462,-1.2465,-1.2474,-1.2481,-1.2405,-1.2405,-1.2405,0,0,-1.2588,-1.257,-1.2571,-1.2555,-1.2542,-1.2543,-1.2506,-1.2508,-1.2508,-1.2467,-1.2472,-1.2458,-1.2441,-1.2453,-1.2457,-1.2443,-1.2485,-1.2466,-1.2471,-1.2471,-1.2478,-1.2485,-1.2491,-1.2407,-1.2407,-1.2407,0,0,-1.2635,-1.2621,-1.263,-1.2618,-1.26,-1.258,-1.2583,-1.2558,-1.2547,-1.2551,-1.2521,-1.2521,-1.2514,-1.2503,-1.2497,-1.2541,-1.2518,-1.254,-1.2573,-1.2582,-1.2588,-1.2593,-1.2609,-1.2615,-1.2543,-1.2543,-1.2543,0,-1.2669,-1.2668,-1.2638,-1.2641,-1.2636,-1.2599,-1.2609,-1.2599,-1.258,-1.2577,-1.2561,-1.2552,-1.2538,-1.2547,-1.2558,-1.2554,-1.2556,-1.2542,-1.2589,-1.2594,-1.2598,-1.2613,-1.2619,-1.2546,-1.2545,-1.2545,-1.2545,0,-1.2711,-1.2711,-1.2721,-1.2703,-1.2698,-1.2705,-1.2677,-1.2676,-1.2656,-1.2639,-1.2644,-1.2626,-1.2617,-1.2617,-1.2599,-1.2624,-1.2616,-1.2595,-1.2567,-1.2609,-1.2622,-1.2627,-1.255,-1.2549,-1.2548,-1.2547,0,0,-1.2788,-1.2754,-1.2758,-1.275,-1.2727,-1.2726,-1.2731,-1.2722,-1.2722,-1.271,-1.2714,-1.271,-1.269,-1.2683,-1.2663,-1.2671,-1.2707,-1.2649,-1.2648,-1.2661,-1.2735,-1.2751,-1.2758,-1.2692,-1.2693,-1.2694,-1.2736,0,-1.283,-1.2837,-1.2811,-1.2824,-1.2824,-1.279,-1.2795,-1.2781,-1.2766,-1.2763,-1.2746,-1.2743,-1.2718,-1.2713,-1.272,-1.2701,-1.2722,-1.2698,-1.2696,-1.2696,-1.2701,-1.2764,-1.2781,-1.2822,-1.2741,-1.2742,-1.2743,0,-1.288,-1.2871,-1.2885,-1.2862,-1.286,-1.2865,-1.2855,-1.2853,-1.2837,-1.2825,-1.2818,-1.2795,-1.2799,-1.2772,-1.2778,-1.2763,-1.276,-1.2751,-1.2752,-1.2751,-1.2722,-1.2765,-1.2834,-1.2841,-1.275,-1.275,-1.2749,0,-1.2935,-1.2926,-1.2933,-1.2927,-1.29,-1.2905,-1.2894,-1.2877,-1.2873,-1.2864,-1.2861,-1.2853,-1.2849,-1.2843,-1.2819,-1.2802,-1.2828,-1.2799,-1.2818,-1.2819,-1.2825,-1.2825,-1.2895,-1.2823,-1.2823,-1.2823,-1.2823,0,-1.2986,-1.2996,-1.2958,-1.2962,-1.2973,-1.2943,-1.2954,-1.294,-1.2925,-1.2927,-1.2897,-1.2899,-1.2866,-1.2865,-1.2846,-1.2854,-1.2852,-1.2843,-1.2837,-1.2845,-1.2847,-1.2843,-1.284,-1.2825,-1.2824,-1.2824,-1.2824,0,-1.3049,-1.3024,-1.303,-1.3004,-1.2997,-1.3006,-1.2984,-1.2988,-1.297,-1.2972,-1.2971,-1.2944,-1.2941,-1.2916,-1.2907,-1.2894,-1.291,-1.2899,-1.2915,-1.2911,-1.2932,-1.2931,-1.3003,-1.3011,-1.2934,-1.2935,-1.2935,0,-1.3083,-1.3089,-1.3064,-1.3063,-1.3053,-1.3052,-1.3047,-1.3019,-1.3016,-1.2999,-1.3005,-1.2999,-1.2993,-1.299,-1.297,-1.2963,-1.2952,-1.2978,-1.2951,-1.2959,-1.2953,-1.2953,-1.2954,-1.2984,-1.2985,-1.2985,-1.2986,0,-1.3146,-1.3133,-1.3128,-1.3119,-1.3115,-1.3107,-1.3096,-1.3097,-1.3065,-1.3064,-1.306,-1.3056,-1.3047,-1.3042,-1.3032,-1.3021,-1.2999,-1.2995,-1.2999,-1.3007,-1.3016,-1.3012,-1.2931,-1.2993,-1.2992,-1.2992,-1.2992,-1.2991,-1.3195,-1.32,-1.3183,-1.3179,-1.3168,-1.3159,-1.3161,-1.3144,-1.314,-1.3131,-1.3114,-1.3113,-1.3098,-1.3082,-1.3073,-1.3073,-1.3059,-1.3065,-1.3067,-1.3069,-1.3073,-1.3016,-1.3071,-1.307,-1.307,-1.307,-1.307,0,-1.3257,-1.3244,-1.3241,-1.3227,-1.3224,-1.3203,-1.3191,-1.319,-1.3189,-1.3177,-1.3172,-1.3168,-1.3163,-1.3143,-1.3136,-1.3139,-1.3129,-1.3138,-1.3138,-1.3136,-1.3085,-1.3083,-1.3147,-1.3147,-1.3147,-1.3147,-1.3147,-1.3147,-1.3289,-1.3296,-1.3281,-1.3283,-1.327,-1.3269,-1.3264,-1.3256,-1.3246,-1.3243,-1.3239,-1.3225,-1.321,-1.3202,-1.3197,-1.3191,-1.319,-1.3203,-1.3194,-1.3147,-1.314,-1.3132,-1.313,-1.3203,-1.3203,-1.3245,-1.3245,-1.3245]},{"header":{"parameterUnit":"m.s-1","parameterCategory":1,"la1":30.2991,"la2":30.254,"lo1":-89.0895,"lo2":-89.0444,"dy":0.0017,"dx":0.0017,"nx":28,"ny":28,"refTime":"2025-06-22T09:00:00:Z","depth":0,"parameterNumber":3,"parameterNumberName":"V-component_of_WINDS"},"data":[0,0,0,0,0,0,0,0,0,0,0,0,0,0,0,0,0,0,0,0,0,0,0,0,0,0,0,0,0,0,0,0,0,0,0,0,0,0,0,0,0,0,0,0,0,0,0,0,0,0,0,0,0,0,0,0,0,0,3.8368,3.8368,0,3.8405,3.8405,3.8405,3.8405,3.8405,3.8404,3.8404,3.8438,3.844,3.8441,0,0,0,0,0,0,0,0,0,0,0,0,0,3.8295,3.8296,3.8368,3.8368,3.8369,3.8405,3.8405,3.8406,3.8405,3.8405,3.8404,3.8404,3.8438,3.8439,3.8441,0,0,0,0,0,0,0,0,0,0,0,0,0,3.8328,3.8296,3.8368,3.8373,3.8374,3.8404,3.8405,3.8406,3.8406,3.8405,3.8404,3.8404,3.8437,3.8439,3.8441,3.8468,0,0,3.8448,3.8448,0,0,0,0,0,0,0,0,3.8326,3.8331,3.8372,3.8373,3.8374,3.84,3.8392,3.8426,3.8406,3.8393,3.8404,3.8403,3.8426,3.8429,3.8437,3.8469,3.8471,3.8448,3.8449,3.845,3.845,0,0,0,0,0,0,0,3.8324,3.8329,3.8382,3.8372,3.8374,3.8373,3.8377,3.8398,3.8413,3.8394,3.8395,3.8399,3.8426,3.8435,3.8438,3.8471,3.8448,3.8449,3.8451,3.8451,3.8528,3.8529,0,0,0,0,0,0,3.8321,3.8327,3.8381,3.8383,3.8348,3.8375,3.8379,3.8392,3.8413,3.8415,3.84,3.8399,3.8432,3.8436,3.8439,3.8472,3.845,3.8452,3.8453,3.8527,3.8528,3.8529,0,0,0,0,0,0,3.8319,3.8326,3.838,3.8355,3.8362,3.8377,3.8391,3.8393,3.8402,3.8417,3.8419,3.8406,3.8432,3.8436,3.8461,3.8473,3.8453,3.8454,3.8526,3.8527,3.8528,3.8537,0,0,0,0,0,0,3.8317,3.8325,3.8336,3.8356,3.8364,3.8402,3.8392,3.8394,3.8406,3.8405,3.8424,3.8426,3.8431,3.8458,3.8463,3.8475,3.8456,3.8525,3.8527,3.8528,3.8536,3.8538,3.8541,0,0,0,0,0,3.8315,3.8336,3.8337,3.8343,3.8378,3.8402,3.8407,3.8414,3.8407,3.8418,3.8427,3.8425,3.8471,3.8461,3.8466,3.8479,3.8524,3.8526,3.8528,3.8535,3.8538,3.8541,0,0,0,0,0,0,3.8316,3.8339,3.834,3.8368,3.8384,3.8402,3.8416,3.8417,3.8433,3.8432,3.8439,3.8443,3.8468,3.8476,3.8464,3.8506,3.8497,3.85,3.85,3.8503,3.8506,3.8503,3.8458,0,0,0,0,0,3.832,3.8339,3.8358,3.8381,3.8389,3.8401,3.8412,3.8417,3.8432,3.8438,3.8449,3.8464,3.8482,3.8493,3.851,3.8537,3.8541,3.8549,3.8552,3.8554,3.8556,3.8571,3.8575,3.8535,3.8535,3.8535,0,0,3.8328,3.8342,3.8354,3.8382,3.8394,3.8413,3.8407,3.8427,3.8441,3.8441,3.8465,3.8474,3.8491,3.8517,3.8529,3.8525,3.8568,3.8556,3.8557,3.8559,3.8573,3.8577,3.858,3.8536,3.8536,3.8536,0,0,3.8351,3.8365,3.8386,3.8399,3.8418,3.8427,3.8432,3.8451,3.8457,3.8482,3.8483,3.8499,3.8529,3.8541,3.8551,3.858,3.8579,3.8586,3.8598,3.8613,3.8616,3.8619,3.8629,3.8633,3.8588,3.8588,3.8588,0,3.8358,3.8388,3.8396,3.8417,3.8429,3.8432,3.8453,3.8465,3.8488,3.8496,3.8491,3.853,3.8541,3.857,3.8578,3.8586,3.8591,3.8583,3.8615,3.8618,3.8621,3.8631,3.8635,3.8589,3.8589,3.8589,3.8589,0,3.8395,3.8416,3.843,3.8455,3.8468,3.8489,3.85,3.8513,3.8516,3.8525,3.855,3.8564,3.8584,3.8591,3.8594,3.8621,3.8618,3.8614,3.8604,3.8625,3.8635,3.8639,3.859,3.8589,3.8589,3.8589,0,0,3.842,3.845,3.8455,3.8466,3.8488,3.8504,3.8524,3.8545,3.8556,3.8572,3.859,3.8616,3.8613,3.8624,3.8628,3.8641,3.8664,3.8636,3.8636,3.864,3.8694,3.8697,3.8701,3.8663,3.8664,3.8665,3.8693,0,3.8446,3.8484,3.8493,3.8525,3.8544,3.8548,3.8566,3.8581,3.8589,3.8606,3.8615,3.8634,3.8628,3.8635,3.8649,3.8658,3.8674,3.8656,3.8679,3.8679,3.8674,3.8706,3.8708,3.8734,3.8696,3.8697,3.8698,0,3.8481,3.8499,3.8534,3.8555,3.8563,3.8579,3.8599,3.8616,3.8633,3.8638,3.8651,3.8654,3.8676,3.8666,3.8694,3.8682,3.8692,3.8698,3.8699,3.8701,3.8689,3.8708,3.8742,3.8746,3.8703,3.8703,3.8703,0,3.8495,3.8529,3.8554,3.8564,3.8588,3.8599,3.861,3.8626,3.8639,3.8656,3.8664,3.8683,3.8693,3.8707,3.8715,3.8707,3.8744,3.8734,3.8748,3.8748,3.8755,3.8754,3.8791,3.8762,3.8762,3.8762,3.8762,0,3.8523,3.8544,3.8561,3.8577,3.86,3.861,3.8633,3.8643,3.8658,3.8675,3.8679,3.8694,3.8704,3.8721,3.8727,3.875,3.8754,3.8759,3.876,3.8758,3.8758,3.8764,3.8762,3.8763,3.8763,3.8762,3.8762,0,3.8542,3.8555,3.8583,3.8604,3.861,3.8626,3.8644,3.8659,3.8668,3.869,3.8695,3.8709,3.8729,3.8739,3.8763,3.8768,3.8793,3.8794,3.8788,3.8788,3.8802,3.88,3.8843,3.8849,3.8817,3.8817,3.8817,0,3.8559,3.8576,3.8599,3.8612,3.8623,3.8642,3.8655,3.8665,3.8679,3.87,3.8712,3.8733,3.875,3.8781,3.8793,3.8812,3.8812,3.8826,3.8815,3.8813,3.8812,3.8811,3.8813,3.8828,3.8828,3.8829,3.8829,0,3.8587,3.8593,3.8612,3.8634,3.8649,3.8666,3.8683,3.8693,3.8706,3.872,3.8741,3.8755,3.8781,3.8801,3.8821,3.883,3.8831,3.8832,3.8836,3.8834,3.883,3.8832,3.8793,3.8831,3.8831,3.8831,3.8831,3.883,3.8605,3.8621,3.864,3.8661,3.8675,3.8691,3.8706,3.8718,3.8737,3.8759,3.8764,3.8787,3.8803,3.8831,3.8841,3.8858,3.8855,3.8861,3.8862,3.8864,3.8864,3.8828,3.8862,3.8862,3.8862,3.8862,3.8862,0,3.8634,3.8647,3.8666,3.869,3.8707,3.8708,3.8727,3.8741,3.8761,3.8777,3.8794,3.8819,3.8839,3.8853,3.8873,3.8884,3.8885,3.8889,3.8888,3.889,3.8866,3.886,3.8888,3.8888,3.8888,3.8888,3.8888,3.8888,3.865,3.8676,3.8684,3.8716,3.8729,3.8752,3.8763,3.8777,3.879,3.8818,3.8835,3.8845,3.886,3.8881,3.8899,3.8903,3.891,3.8914,3.8917,3.8894,3.8891,3.8889,3.8884,3.8915,3.8915,3.8939,3.8939,3.894]}]]